Atqasuk Edward Burnell Sr Mem, AK

8:00 PM AKST on November 16, 2019 (GMT -0900)
Atqasuk Edward Burnell Sr Mem

Weather History for PATQ - May, 2019

Change the Weather History Date:

Thursday, May 16, 2019

  Actual Average (PABR) Record (PABR)
Temperature  
Mean Temperature 30 °F 21 °F  
Max Temperature 33 °F 26 °F 40 °F (1938)
Min Temperature 26 °F 17 °F -4 °F (1924)
Degree Days  
Heating Degree Days 36 44  
Month to date heating degree days 770  
Since 1 July heating degree days 17930  
Cooling Degree Days 0 0  
Month to date cooling degree days 0  
Year to date cooling degree days 0  
Moisture  
Dew Point 27 °F    
Average Humidity 92    
Maximum Humidity 100    
Minimum Humidity 81    
Precipitation  
Precipitation 0.00 in 0.01 in 0.09 in (2015)
Month to date precipitation 0.08  
Year to date precipitation 0.60  
Sea Level Pressure  
Sea Level Pressure 29.97 in    
Wind  
Wind Speed 9 mph (ENE)    
Max Wind Speed 23 mph    
Max Gust Speed -    
Visibility 4 miles    
Events Fog , Rain , Snow    
T = Trace of Precipitation, MM = Missing Value Source: NWS Daily Summary

Daily Weather History Graph

Daily Weather History Graph

Search for Another Location

Airport or City:

Astronomy

May. 16, 2019 Rise Set
Actual Time 2:58 AM AKDT 1:53 AM AKDT
Civil Twilight Sun does not rise Sun does not rise
Nautical Twilight Sun does not rise Sun does not rise
Astronomical Twilight Sun does not rise Sun does not rise
Moon 8:45 PM AKDT (5/16) 5:34 AM AKDT (5/16)
Length of Visible Light 24h 00m
Length of Day
22h 55m
Waxing Gibbous, 95% of the Moon is Illuminated
May 16
Waxing Gibbous
May 18
Full
May 26
Last Quarter
Jun 3
New
Jun 9
First Quarter

Hourly Weather History & Observations

Time (AKDT) Temp. Windchill Dew Point Humidity Pressure Visibility Wind Dir Wind Speed Gust Speed Precip Events Conditions
12:11 AM 28.4 °F 22.2 °F 28.4 °F 100% 30.00 in 0.5 mi ENE 5.8 mph - 0.00 in Fog Light Freezing Fog
12:29 AM 28.4 °F 20.4 °F 26.6 °F 93% 30.00 in 0.8 mi ENE 8.1 mph - 0.00 in   Overcast
12:37 AM 28.4 °F 20.4 °F 26.6 °F 93% 29.99 in 0.5 mi NE 8.1 mph - 0.00 in Fog Light Freezing Fog
12:49 AM 28.4 °F 21.2 °F 26.6 °F 93% 30.00 in 0.8 mi East 6.9 mph - 0.00 in Snow Light Snow
12:56 AM 28.0 °F 21.7 °F 27.0 °F 96% 30.02 in 0.5 mi East 5.8 mph - 0.00 in Fog , Snow Light Snow
1:27 AM 28.4 °F 23.3 °F 26.6 °F 93% 29.99 in 1.0 mi ENE 4.6 mph - 0.00 in   Overcast
1:34 AM 28.4 °F 21.2 °F 26.6 °F 93% 30.00 in 0.8 mi East 6.9 mph - 0.00 in   Overcast
1:52 AM 28.4 °F 22.2 °F 28.4 °F 100% 30.00 in 0.5 mi ENE 5.8 mph - 0.00 in Fog , Snow Light Snow
1:56 AM 28.0 °F 21.7 °F 28.0 °F 100% 30.02 in 0.2 mi ENE 5.8 mph - 0.00 in Fog Light Freezing Fog
2:15 AM 28.4 °F 19.7 °F 26.6 °F 93% 29.99 in 0.8 mi NNE 9.2 mph - 0.00 in   Overcast
2:18 AM 28.4 °F 22.2 °F 26.6 °F 93% 29.99 in 1.2 mi NNE 5.8 mph - 0.00 in   Overcast
2:27 AM 28.4 °F 20.4 °F 26.6 °F 93% 30.00 in 1.0 mi NE 8.1 mph - 0.00 in   Overcast
2:39 AM 28.4 °F 20.4 °F 26.6 °F 93% 29.99 in 0.5 mi NE 8.1 mph - 0.00 in Fog , Snow Light Snow
2:56 AM 28.0 °F 20.0 °F 27.0 °F 96% 30.02 in 0.5 mi NE 8.1 mph - 0.00 in Fog Light Freezing Fog
3:00 AM 28.4 °F 22.2 °F 26.6 °F 93% 30.00 in 1.0 mi NE 5.8 mph - 0.00 in   Overcast
3:10 AM 28.4 °F 19.7 °F 26.6 °F 93% 29.99 in 1.2 mi NE 9.2 mph - 0.00 in   Overcast
3:25 AM 26.6 °F 20.0 °F 26.6 °F 100% 29.99 in 2.5 mi East 5.8 mph - 0.00 in   Overcast
3:34 AM 26.6 °F 21.2 °F 26.6 °F 100% 29.99 in 1.8 mi ENE 4.6 mph - 0.00 in Snow Light Snow
3:56 AM 27.0 °F 20.5 °F 26.1 °F 96% 30.02 in 1.0 mi NE 5.8 mph - 0.00 in Snow Light Snow
4:11 AM 26.6 °F 21.2 °F 26.6 °F 100% 29.99 in 1.2 mi NE 4.6 mph - 0.00 in Snow Light Snow
4:35 AM 26.6 °F 20.0 °F 26.6 °F 100% 29.98 in 1.0 mi ENE 5.8 mph - 0.00 in Snow Light Snow
4:42 AM 26.6 °F 20.0 °F 26.6 °F 100% 29.98 in 1.2 mi NNE 5.8 mph - 0.00 in Snow Light Snow
4:56 AM 27.0 °F 20.5 °F 27.0 °F 100% 30.01 in 1.2 mi NE 5.8 mph - 0.00 in Snow Light Snow
5:04 AM 28.4 °F 21.2 °F 26.6 °F 93% 29.98 in 1.0 mi NE 6.9 mph - 0.00 in Snow Light Snow
5:12 AM 28.4 °F 22.2 °F 26.6 °F 93% 29.98 in 2.0 mi NE 5.8 mph - 0.00 in Snow Light Snow
5:20 AM 28.4 °F 19.7 °F 26.6 °F 93% 29.98 in 7.0 mi NE 9.2 mph - 0.00 in Snow Light Snow
5:36 AM 26.6 °F 18.2 °F 26.6 °F 100% 29.98 in 10.0 mi ENE 8.1 mph - 0.00 in   Overcast
5:56 AM 27.0 °F 18.0 °F 26.1 °F 96% 30.00 in 10.0 mi ENE 9.2 mph - 0.00 in   Overcast
6:26 AM 26.6 °F 18.2 °F 26.6 °F 100% 29.98 in 9.0 mi ENE 8.1 mph - 0.00 in Snow Light Snow
6:56 AM 27.0 °F 19.5 °F 26.1 °F 96% 30.00 in 3.0 mi East 6.9 mph - 0.00 in Snow Light Snow
7:44 AM 28.4 °F 21.2 °F 26.6 °F 93% 29.97 in 9.0 mi ENE 6.9 mph - 0.00 in Snow Light Snow
7:56 AM 28.0 °F 20.0 °F 27.0 °F 96% 30.00 in 10.0 mi ENE 8.1 mph - 0.00 in   Overcast
8:56 AM 30.0 °F 21.7 °F 27.0 °F 88% 29.99 in 2.0 mi ENE 9.2 mph - 0.00 in   Overcast
9:11 AM 30.2 °F 20.2 °F 26.6 °F 86% 29.97 in 4.0 mi ENE 12.7 mph - 0.00 in   Overcast
9:24 AM 28.4 °F 19.7 °F 26.6 °F 93% 29.97 in 10.0 mi East 9.2 mph - 0.00 in Snow Light Snow
9:56 AM 30.0 °F 21.1 °F 28.0 °F 92% 29.99 in 10.0 mi East 10.4 mph - 0.00 in   Overcast
10:56 AM 30.9 °F 21.2 °F 28.0 °F 89% 29.98 in 3.0 mi ENE 12.7 mph - 0.00 in   Overcast
11:10 AM 30.2 °F 20.8 °F 28.4 °F 93% 29.96 in 10.0 mi ENE 11.5 mph - 0.00 in   Overcast
11:56 AM 30.9 °F 21.7 °F 28.0 °F 89% 29.97 in 10.0 mi ENE 11.5 mph - 0.00 in   Overcast
12:56 PM 32.0 °F 22.1 °F 28.0 °F 85% 29.96 in 6.0 mi ENE 13.8 mph - 0.00 in   Overcast
1:56 PM 32.0 °F 22.1 °F 28.0 °F 85% 29.96 in 7.0 mi ENE 13.8 mph - 0.00 in   Overcast
2:56 PM 32.0 °F 21.2 °F 28.0 °F 85% 29.95 in 2.0 mi ENE 16.1 mph - 0.00 in   Overcast
3:09 PM 33.8 °F 23.5 °F 28.4 °F 81% 29.93 in 5.0 mi ENE 16.1 mph - 0.00 in   Overcast
3:56 PM 33.1 °F 23.0 °F 28.9 °F 85% 29.94 in 2.5 mi ENE 15.0 mph - 0.00 in Snow Light Snow
3:58 PM 33.8 °F 23.9 °F 28.4 °F 81% 29.92 in 2.5 mi ENE 15.0 mph - 0.00 in Snow Light Snow
4:06 PM 32.0 °F 20.8 °F 28.4 °F 87% 29.91 in 5.0 mi ENE 17.3 mph - 0.00 in Rain Light Rain
4:26 PM 32.0 °F 20.8 °F 28.4 °F 87% 29.91 in 1.0 mi ENE 17.3 mph - 0.00 in Snow Light Snow
4:30 PM 32.0 °F 20.8 °F 28.4 °F 87% 29.91 in 2.0 mi ENE 17.3 mph - 0.00 in Snow Light Snow
4:37 PM 32.0 °F 20.5 °F 28.4 °F 87% 29.91 in 6.0 mi ENE 18.4 mph - 0.00 in   Overcast
4:56 PM 32.0 °F 20.8 °F 28.9 °F 88% 29.94 in 7.0 mi ENE 17.3 mph - 0.00 in   Overcast
5:56 PM 32.0 °F 21.6 °F 28.9 °F 88% 29.93 in 10.0 mi ENE 15.0 mph - 0.00 in   Overcast
6:56 PM 32.0 °F 19.5 °F 28.9 °F 88% 29.91 in 10.0 mi ENE 21.9 mph - N/A   Overcast
7:56 PM 32.0 °F 19.8 °F 28.9 °F 88% 29.90 in 10.0 mi ENE 20.7 mph - N/A   Overcast
8:56 PM 32.0 °F 20.1 °F 30.0 °F 92% 29.90 in 10.0 mi East 19.6 mph - N/A   Overcast
9:56 PM 32.0 °F 19.5 °F 30.0 °F 92% 29.89 in 10.0 mi East 21.9 mph - N/A   Overcast
10:56 PM 30.9 °F 17.8 °F 28.9 °F 92% 29.88 in 10.0 mi ENE 23.0 mph - N/A   Overcast
11:56 PM 30.9 °F 17.8 °F 28.9 °F 92% 29.87 in 10.0 mi East 23.0 mph - N/A   Mostly Cloudy